This is the latest recevied weather packets stored in our database for station/object W2SBL-1. If no packets are shown the sender has not sent any weather packets the latest 1 day(s).
| Time | Temp. | Humidity | Pressure | Rain* | Wind** | Luminosity | Snow |
|---|---|---|---|---|---|---|---|
| 1777921941 | 25.56° C | 39% | 1010.9 hPa | - | - | - | - |
| 1777921041 | 25.56° C | 39% | 1011.1 hPa | - | - | - | - |
| 1777920141 | 26.11° C | 39% | 1011.3 hPa | - | - | - | - |
| 1777919241 | 25.56° C | 39% | 1011.3 hPa | - | - | - | - |
| 1777918341 | 25.56° C | 39% | 1011.5 hPa | - | - | - | - |
| 1777917441 | 25° C | 39% | 1011.6 hPa | - | - | - | - |
| 1777916541 | 25.56° C | 38% | 1011.7 hPa | - | - | - | - |
| 1777915641 | 25° C | 38% | 1011.7 hPa | - | - | - | - |
| 1777914741 | 25.56° C | 38% | 1012 hPa | - | - | - | - |
| 1777913841 | 25.56° C | 37% | 1012.1 hPa | - | - | - | - |
| 1777912941 | 26.11° C | 36% | 1012.3 hPa | - | - | - | - |
| 1777912040 | 26.11° C | 35% | 1012.4 hPa | - | - | - | - |
| 1777911140 | 25.56° C | 35% | 1012.5 hPa | - | - | - | - |
| 1777910240 | 25° C | 36% | 1012.7 hPa | - | - | - | - |
| 1777909340 | 25.56° C | 34% | 1013 hPa | - | - | - | - |
| 1777908440 | 25° C | 34% | 1013 hPa | - | - | - | - |
| 1777907540 | 22.78° C | 35% | 1013.2 hPa | - | - | - | - |
| 1777906640 | 21.67° C | 37% | 1013.3 hPa | - | - | - | - |
| 1777905740 | 20° C | 38% | 1013.2 hPa | - | - | - | - |
| 1777904840 | 18.89° C | 38% | 1023.4 hPa | - | - | - | - |
| 1777903940 | 18.89° C | 38% | 1013.3 hPa | - | - | - | - |
| 1777903040 | 18.89° C | 38% | 1013.3 hPa | - | - | - | - |
| 1777902140 | 18.33° C | 38% | 1013.4 hPa | - | - | - | - |
| 1777901240 | 18.33° C | 38% | 1013.6 hPa | - | - | - | - |
| 1777900340 | 17.78° C | 38% | 1023.7 hPa | - | - | - | - |
* Rain since midnight (hover to see other rain measurements)
** Current wind speed in m/s (hover to see current wind gust speed)